Location: Brede
(50.9167°N, 0.6000°E)
Time: 21:24:00
(UTC+00:00)

Altair - Pass Details

Date: 05 August 2021
Orbit: 1501 x 1682 km, 47.2° (Epoch: 22 September)

Event Time Altitude Azimuth Distance (km) Brightness Sun altitude
Exits shadow 22:00:59 10° 108° (ESE) 3,712 9.1 -17.2°
Drops below altitude 10° 22:01:12 10° 106° (ESE) 3,730 9.1 -17.3°
Sets 22:07:09 0° 77° (ENE) 4,687 9.9 -17.7°
